Location: Brahman Valley
(40.6513°N, 111.8855°W)
Time: 20:58:08
(UTC+00:00)

Vanguard 2 - Pass Details

Date: 15 May 2021
Orbit: 552 x 2937 km, 32.9° (Epoch: 14 June)

Event Time Altitude Azimuth Distance (km) Brightness Sun altitude
Rises 10:27:08 0° 200° (SSW) 3,659 - -16.8°
Reaches altitude 10° 10:30:08 10° 184° (S) 3,022 - -16.4°
Exits shadow 10:30:20 11° 182° (S) 2,989 10.1 -16.3°
Maximum altitude 10:35:35 21° 138° (SE) 2,833 10.4 -15.6°
Drops below altitude 10° 10:43:04 10° 96° (E) 4,335 12.0 -14.6°
Sets 10:48:32 0° 83° (E) 5,805 13.0 -13.8°
